Hourly Data Report for January 14, 2013

BAGOTVILLE A
QUEBEC

48°20'00.000" N
71°00'00.000" W
159.10 m
7060400
71727
YBG

Download Data

Hourly Data (January 2013)
Hourly Data Report for January 14, 2013
TIME
LST
Temp Definition
°C
Dew Point Definition
°C
Rel Hum Definition
%
Precip. Amount Definition
mm

Wind Dir Definition
10's deg

Wind Spd Definition
km/h
Visibility Definition
km
Stn Press Definition
kPa
Hmdx Definition


Wind Chill Definition


Weather Definition


00:00 1.8 1.6 99     0 0.8 98.86     Fog
01:00 1.5 1.5 100   11 4 1.2 98.79     Drizzle, Fog
02:00 2.2 2.0 99   10 9 0.8 98.72     Drizzle, Fog
03:00 1.5 1.3 99     0 0.4 98.58     Fog
04:00 1.4 1.4 100   10 13 0.4 98.33     Fog
05:00 1.8 1.3 96   10 24 0.8 98.13     Fog
06:00 1.9 1.2 95   31 4 4.8 98.21     Moderate Rain Showers, Fog
07:00 1.8 1.3 96   29 9 3.2 98.34     Rain Showers, Fog
08:00 2.1 1.6 96   9 4 1.6 98.32     Rain Showers, Fog
09:00 3.4 2.7 95   27 6 24.1 98.40     Cloudy
10:00 5.5 2.7 82   27 32 24.1 98.61     Mostly Cloudy
11:00 4.1 0.4 77   27 33 16.1 98.76     Mostly Cloudy
12:00 0.9 -1.4 85   29 50 16.1 99.02     Mostly Cloudy
13:00 -0.4 -4.6 73   31 32 24.1 99.30   -7 Mostly Cloudy
14:00 -1.1 -2.6 90   31 37 24.1 99.51   -9 Mainly Clear
15:00 -2.1 -2.6 96   33 37 16.1 99.74   -10 Snow Showers
16:00 -2.8 -9.7 59   31 35 40.2 99.94   -11 Mostly Cloudy
17:00 -3.9 -10.5 60   32 32 32.2 100.09   -12 Snow Showers
18:00 -5.8 -11.2 66   32 28 24.1 100.19   -14 Mainly Clear
19:00 -7.0 -16.5 47   32 24 24.1 100.27   -15 Mainly Clear
20:00 -8.0 -15.4 55   31 24 24.1 100.38   -16 Clear
21:00 -9.2 -16.1 57   32 22 24.1 100.48   -17 Clear
22:00 -10.3 -16.7 59   30 20 24.1 100.48   -18 Clear
23:00 -11.1 -16.7 63   29 19 24.1 100.53   -19 Clear

Notes on Data Quality.

Legend

  • E = Estimated
  • M = Missing
  • NA = Not Available*
  • [empty] = Indicates an unobserved value
Date modified: